Year,Month,Day,Hour,Minute,Value (Times are PST for temperature in C)
2016,05,20,00,00,10.10
2016,05,20,00,01,10.10
2016,05,20,00,02,10.10
2016,05,20,00,03,10.10
2016,05,20,00,04,10.10
2016,05,20,00,05,10.10
2016,05,20,00,06,10.00
2016,05,20,00,07,9.80
2016,05,20,00,08,9.80
2016,05,20,00,09,9.70
2016,05,20,00,10,9.70
2016,05,20,00,11,9.70
2016,05,20,00,12,9.70
2016,05,20,00,13,9.70
2016,05,20,00,14,9.70
2016,05,20,00,15,9.60
2016,05,20,00,16,9.60
2016,05,20,00,17,9.60
2016,05,20,00,18,9.50
2016,05,20,00,19,9.50
2016,05,20,00,20,9.50
2016,05,20,00,21,9.50
2016,05,20,00,22,9.40
2016,05,20,00,23,9.40
2016,05,20,00,24,9.40
2016,05,20,00,25,9.40
2016,05,20,00,26,9.30
2016,05,20,00,27,9.30
2016,05,20,00,28,9.30
2016,05,20,00,29,9.30
2016,05,20,00,30,9.30
2016,05,20,00,31,9.30
2016,05,20,00,32,9.30
2016,05,20,00,33,9.30
2016,05,20,00,34,9.20
2016,05,20,00,35,9.20
2016,05,20,00,36,9.20
2016,05,20,00,37,9.20
2016,05,20,00,38,9.20
2016,05,20,00,39,9.20
2016,05,20,00,40,9.20
2016,05,20,00,41,9.20
2016,05,20,00,42,9.20
2016,05,20,00,43,9.20
2016,05,20,00,44,9.20
2016,05,20,00,45,9.20
2016,05,20,00,46,9.20
2016,05,20,00,47,9.20
2016,05,20,00,48,9.20
2016,05,20,00,49,9.20
2016,05,20,00,50,9.20
2016,05,20,00,51,9.20
2016,05,20,00,52,9.20
2016,05,20,00,53,9.20
2016,05,20,00,54,9.20
2016,05,20,00,55,9.20
2016,05,20,00,56,9.20
2016,05,20,00,57,9.10
2016,05,20,00,58,9.10
2016,05,20,00,59,9.10
2016,05,20,01,00,9.10
2016,05,20,01,01,9.10
2016,05,20,01,02,9.00
2016,05,20,01,03,9.00
2016,05,20,01,04,9.00
2016,05,20,01,05,9.00
2016,05,20,01,06,9.00
2016,05,20,01,07,9.00
2016,05,20,01,08,8.90
2016,05,20,01,09,8.90
2016,05,20,01,10,8.90
2016,05,20,01,11,8.80
2016,05,20,01,12,8.80
2016,05,20,01,13,8.70
2016,05,20,01,14,8.70
2016,05,20,01,15,8.70
2016,05,20,01,16,8.70
2016,05,20,01,17,8.70
2016,05,20,01,18,8.70
2016,05,20,01,19,8.70
2016,05,20,01,20,8.70
2016,05,20,01,21,8.70
2016,05,20,01,22,8.60
2016,05,20,01,23,8.60
2016,05,20,01,24,8.60
2016,05,20,01,25,8.60
2016,05,20,01,26,8.50
2016,05,20,01,27,8.50
2016,05,20,01,28,8.50
2016,05,20,01,29,8.50
2016,05,20,01,30,8.50
2016,05,20,01,31,8.40
2016,05,20,01,32,8.40
2016,05,20,01,33,8.40
2016,05,20,01,34,8.40
2016,05,20,01,35,8.40
2016,05,20,01,36,8.40
2016,05,20,01,37,8.30
2016,05,20,01,38,8.30
2016,05,20,01,39,8.30
2016,05,20,01,40,8.30
2016,05,20,01,41,8.20
2016,05,20,01,42,8.20
2016,05,20,01,43,8.20
2016,05,20,01,44,8.20
2016,05,20,01,45,8.20
2016,05,20,01,46,8.20
2016,05,20,01,47,8.20
2016,05,20,01,48,8.20
2016,05,20,01,49,8.20
2016,05,20,01,50,8.20
2016,05,20,01,51,8.10
2016,05,20,01,52,8.10
2016,05,20,01,53,8.10
2016,05,20,01,54,8.10
2016,05,20,01,55,8.10
2016,05,20,01,56,8.10
2016,05,20,01,57,8.10
2016,05,20,01,58,8.00
2016,05,20,01,59,8.00
2016,05,20,02,00,8.00
2016,05,20,02,01,8.00
2016,05,20,02,02,8.00
2016,05,20,02,03,8.00
2016,05,20,02,04,8.00
2016,05,20,02,05,8.00
2016,05,20,02,06,7.90
2016,05,20,02,07,7.90
2016,05,20,02,08,7.90
2016,05,20,02,09,7.90
2016,05,20,02,10,7.80
2016,05,20,02,11,7.80
2016,05,20,02,12,7.80
2016,05,20,02,13,7.80
2016,05,20,02,14,7.80
2016,05,20,02,15,7.70
2016,05,20,02,16,7.70
2016,05,20,02,17,7.70
2016,05,20,02,18,7.70
2016,05,20,02,19,7.60
2016,05,20,02,20,7.60
2016,05,20,02,21,7.60
2016,05,20,02,22,7.60
2016,05,20,02,23,7.60
2016,05,20,02,24,7.60
2016,05,20,02,25,7.60
2016,05,20,02,26,7.60
2016,05,20,02,27,7.60
2016,05,20,02,28,7.60
2016,05,20,02,29,7.50
2016,05,20,02,30,7.50
2016,05,20,02,31,7.50
2016,05,20,02,32,7.50
2016,05,20,02,33,7.50
2016,05,20,02,34,7.50
2016,05,20,02,35,7.50
2016,05,20,02,36,7.60
2016,05,20,02,37,7.60
2016,05,20,02,38,7.60
2016,05,20,02,39,7.60
2016,05,20,02,40,7.50
2016,05,20,02,41,7.50
2016,05,20,02,42,7.50
2016,05,20,02,43,7.50
2016,05,20,02,44,7.50
2016,05,20,02,45,7.50
2016,05,20,02,46,7.50
2016,05,20,02,47,7.50
2016,05,20,02,48,7.50
2016,05,20,02,49,7.50
2016,05,20,02,50,7.50
2016,05,20,02,51,7.40
2016,05,20,02,52,7.40
2016,05,20,02,53,7.40
2016,05,20,02,54,7.40
2016,05,20,02,55,7.40
2016,05,20,02,56,7.40
2016,05,20,02,57,7.40
2016,05,20,02,58,7.30
2016,05,20,02,59,7.30
2016,05,20,03,00,7.30
2016,05,20,03,01,7.30
2016,05,20,03,02,7.30
2016,05,20,03,03,7.30
2016,05,20,03,04,7.30
2016,05,20,03,05,7.30
2016,05,20,03,06,7.30
2016,05,20,03,07,7.30
2016,05,20,03,08,7.30
2016,05,20,03,09,7.30
2016,05,20,03,10,7.30
2016,05,20,03,11,7.30
2016,05,20,03,12,7.30
2016,05,20,03,13,7.30
2016,05,20,03,14,7.30
2016,05,20,03,15,7.30
2016,05,20,03,16,7.30
2016,05,20,03,17,7.30
2016,05,20,03,18,7.30
2016,05,20,03,19,7.30
2016,05,20,03,20,7.30
2016,05,20,03,21,7.30
2016,05,20,03,22,7.30
2016,05,20,03,23,7.40
2016,05,20,03,24,7.40
2016,05,20,03,25,7.40
2016,05,20,03,26,7.40
2016,05,20,03,27,7.40
2016,05,20,03,28,7.40
2016,05,20,03,29,7.40
2016,05,20,03,30,7.40
2016,05,20,03,31,7.40
2016,05,20,03,32,7.40
2016,05,20,03,33,7.50
2016,05,20,03,34,7.50
2016,05,20,03,35,7.50
2016,05,20,03,36,7.50
2016,05,20,03,37,7.50
2016,05,20,03,38,7.50
2016,05,20,03,39,7.50
2016,05,20,03,40,7.50
2016,05,20,03,41,7.60
2016,05,20,03,42,7.60
2016,05,20,03,43,7.60
2016,05,20,03,44,7.60
2016,05,20,03,45,7.60
2016,05,20,03,46,7.50
2016,05,20,03,47,7.50
2016,05,20,03,48,7.50
2016,05,20,03,49,7.50
2016,05,20,03,50,7.50
2016,05,20,03,51,7.50
2016,05,20,03,52,7.50
2016,05,20,03,53,7.50
2016,05,20,03,54,7.50
2016,05,20,03,55,7.50
2016,05,20,03,56,7.50
2016,05,20,03,57,7.50
2016,05,20,03,58,7.60
2016,05,20,03,59,7.60
2016,05,20,04,00,7.60
2016,05,20,04,01,7.60
2016,05,20,04,02,7.60
2016,05,20,04,03,7.60
2016,05,20,04,04,7.60
2016,05,20,04,05,7.60
2016,05,20,04,06,7.60
2016,05,20,04,07,7.50
2016,05,20,04,08,7.50
2016,05,20,04,09,7.50
2016,05,20,04,10,7.50
2016,05,20,04,11,7.50
2016,05,20,04,12,7.50
2016,05,20,04,13,7.50
2016,05,20,04,14,7.40
2016,05,20,04,15,7.40
2016,05,20,04,16,7.40
2016,05,20,04,17,7.40
2016,05,20,04,18,7.40
2016,05,20,04,19,7.40
2016,05,20,04,20,7.50
2016,05,20,04,21,7.50
2016,05,20,04,22,7.50
2016,05,20,04,23,7.50
2016,05,20,04,24,7.50
2016,05,20,04,25,7.50
2016,05,20,04,26,7.50
2016,05,20,04,27,7.50
2016,05,20,04,28,7.60
2016,05,20,04,29,7.60
2016,05,20,04,30,7.60
2016,05,20,04,31,7.60
2016,05,20,04,32,7.60
2016,05,20,04,33,7.70
2016,05,20,04,34,7.70
2016,05,20,04,35,7.70
2016,05,20,04,36,7.80
2016,05,20,04,37,7.80
2016,05,20,04,38,7.80
2016,05,20,04,39,7.80
2016,05,20,04,40,7.80
2016,05,20,04,41,7.80
2016,05,20,04,42,7.80
2016,05,20,04,43,7.80
2016,05,20,04,44,7.80
2016,05,20,04,45,7.80
2016,05,20,04,46,7.80
2016,05,20,04,47,7.80
2016,05,20,04,48,7.80
2016,05,20,04,49,7.80
2016,05,20,04,50,7.80
2016,05,20,04,51,7.80
2016,05,20,04,52,7.80
2016,05,20,04,53,7.80
2016,05,20,04,54,7.90
2016,05,20,04,55,7.90
2016,05,20,04,56,7.90
2016,05,20,04,57,7.90
2016,05,20,04,58,7.90
2016,05,20,04,59,8.00
2016,05,20,05,00,8.00
2016,05,20,05,01,8.00
2016,05,20,05,02,8.00
2016,05,20,05,03,8.00
2016,05,20,05,04,8.00
2016,05,20,05,05,8.00
2016,05,20,05,06,8.10
2016,05,20,05,07,8.10
2016,05,20,05,08,8.10
2016,05,20,05,09,8.10
2016,05,20,05,10,8.10
2016,05,20,05,11,8.10
2016,05,20,05,12,8.10
2016,05,20,05,13,8.10
2016,05,20,05,14,8.10
2016,05,20,05,15,8.20
2016,05,20,05,16,8.20
2016,05,20,05,17,8.20
2016,05,20,05,18,8.20
2016,05,20,05,19,8.20
2016,05,20,05,20,8.20
2016,05,20,05,21,8.20
2016,05,20,05,22,8.20
2016,05,20,05,23,8.20
2016,05,20,05,24,8.20
2016,05,20,05,25,8.20
2016,05,20,05,26,8.20
2016,05,20,05,27,8.20
2016,05,20,05,28,8.20
2016,05,20,05,29,8.20
2016,05,20,05,30,8.20
2016,05,20,05,31,8.20
2016,05,20,05,32,8.20
2016,05,20,05,33,8.20
2016,05,20,05,34,8.20
2016,05,20,05,35,8.20
2016,05,20,05,36,8.20
2016,05,20,05,37,8.20
2016,05,20,05,38,8.20
2016,05,20,05,39,8.20
2016,05,20,05,40,8.20
2016,05,20,05,41,8.30
2016,05,20,05,42,8.30
2016,05,20,05,43,8.30
2016,05,20,05,44,8.30
2016,05,20,05,45,8.30
2016,05,20,05,46,8.30
2016,05,20,05,47,8.30
2016,05,20,05,48,8.40
2016,05,20,05,49,8.40
2016,05,20,05,50,8.40
2016,05,20,05,51,8.40
2016,05,20,05,52,8.40
2016,05,20,05,53,8.40
2016,05,20,05,54,8.40
2016,05,20,05,55,8.50
2016,05,20,05,56,8.50
2016,05,20,05,57,8.50
2016,05,20,05,58,8.50
2016,05,20,05,59,8.50
2016,05,20,06,00,8.50
2016,05,20,06,01,8.60
2016,05,20,06,02,8.60
2016,05,20,06,03,8.60
2016,05,20,06,04,8.60
2016,05,20,06,05,8.60
2016,05,20,06,06,8.60
2016,05,20,06,07,8.60
2016,05,20,06,08,8.60
2016,05,20,06,09,8.70
2016,05,20,06,10,8.70
2016,05,20,06,11,8.70
2016,05,20,06,12,8.70
2016,05,20,06,13,8.70
2016,05,20,06,14,8.70
2016,05,20,06,15,8.70
2016,05,20,06,16,8.70
2016,05,20,06,17,8.70
2016,05,20,06,18,8.70
2016,05,20,06,19,8.70
2016,05,20,06,20,8.70
2016,05,20,06,21,8.70
2016,05,20,06,22,8.70
2016,05,20,06,23,8.70
2016,05,20,06,24,8.70
2016,05,20,06,25,8.70
2016,05,20,06,26,8.70
2016,05,20,06,27,8.80
2016,05,20,06,28,8.80
2016,05,20,06,29,8.80
2016,05,20,06,30,8.90
2016,05,20,06,31,8.90
2016,05,20,06,32,8.90
2016,05,20,06,33,8.90
2016,05,20,06,34,9.00
2016,05,20,06,35,9.00
2016,05,20,06,36,9.00
2016,05,20,06,37,9.10
2016,05,20,06,38,9.10
2016,05,20,06,39,9.20
2016,05,20,06,40,9.20
2016,05,20,06,41,9.20
2016,05,20,06,42,9.20
2016,05,20,06,43,9.20
2016,05,20,06,44,9.20
2016,05,20,06,45,9.20
2016,05,20,06,46,9.20
2016,05,20,06,47,9.20
2016,05,20,06,48,9.30
2016,05,20,06,49,9.30
2016,05,20,06,50,9.30
2016,05,20,06,51,9.30
2016,05,20,06,52,9.30
2016,05,20,06,53,9.40
2016,05,20,06,54,9.40
2016,05,20,06,55,9.40
2016,05,20,06,56,9.50
2016,05,20,06,57,9.50
2016,05,20,06,58,9.50
2016,05,20,06,59,9.50
2016,05,20,07,00,9.50
2016,05,20,07,01,9.60
2016,05,20,07,02,9.60
2016,05,20,07,03,9.60
2016,05,20,07,04,9.60
2016,05,20,07,05,9.60
2016,05,20,07,06,9.70
2016,05,20,07,07,9.70
2016,05,20,07,08,9.70
2016,05,20,07,09,9.70
2016,05,20,07,10,9.70
2016,05,20,07,11,9.70
2016,05,20,07,12,9.70
2016,05,20,07,13,9.70
2016,05,20,07,14,9.80
2016,05,20,07,15,9.80
2016,05,20,07,16,9.80
2016,05,20,07,17,9.90
2016,05,20,07,18,9.90
2016,05,20,07,19,9.90
2016,05,20,07,20,9.90
2016,05,20,07,21,9.90
2016,05,20,07,22,9.90
2016,05,20,07,23,10.00
2016,05,20,07,24,10.10
2016,05,20,07,25,10.10
2016,05,20,07,26,10.10
2016,05,20,07,27,10.10
2016,05,20,07,28,10.20
2016,05,20,07,29,10.20
2016,05,20,07,30,10.30
2016,05,20,07,31,10.30
2016,05,20,07,32,10.40
2016,05,20,07,33,10.40
2016,05,20,07,34,10.40
2016,05,20,07,35,10.40
2016,05,20,07,36,10.50
2016,05,20,07,37,10.60
2016,05,20,07,38,10.60
2016,05,20,07,39,10.60
2016,05,20,07,40,10.70
2016,05,20,07,41,10.70
2016,05,20,07,42,10.80
2016,05,20,07,43,10.80
2016,05,20,07,44,10.90
2016,05,20,07,45,10.90
2016,05,20,07,46,10.90
2016,05,20,07,47,10.90
2016,05,20,07,48,10.90
2016,05,20,07,49,10.90
2016,05,20,07,50,10.90
2016,05,20,07,51,10.90
2016,05,20,07,52,10.90
2016,05,20,07,53,10.90
2016,05,20,07,54,10.90
2016,05,20,07,55,11.10
2016,05,20,07,56,11.10
2016,05,20,07,57,11.10
2016,05,20,07,58,11.10
2016,05,20,07,59,11.10
2016,05,20,08,00,11.10
2016,05,20,08,01,11.10
2016,05,20,08,02,11.10
2016,05,20,08,03,11.10
2016,05,20,08,04,11.10
2016,05,20,08,05,11.10
2016,05,20,08,06,11.10
2016,05,20,08,07,11.10
2016,05,20,08,08,11.10
2016,05,20,08,09,11.10
2016,05,20,08,10,11.10
2016,05,20,08,11,11.10
2016,05,20,08,12,11.10
2016,05,20,08,13,11.10
2016,05,20,08,14,11.20
2016,05,20,08,15,11.20
2016,05,20,08,16,11.20
2016,05,20,08,17,11.30
2016,05,20,08,18,11.20
2016,05,20,08,19,11.30
2016,05,20,08,20,11.30
2016,05,20,08,21,11.30
2016,05,20,08,22,11.40
2016,05,20,08,23,11.30
2016,05,20,08,24,11.30
2016,05,20,08,25,11.30
2016,05,20,08,26,11.40
2016,05,20,08,27,11.40
2016,05,20,08,28,11.40
2016,05,20,08,29,11.40
2016,05,20,08,30,11.50
2016,05,20,08,31,11.60
2016,05,20,08,32,11.70
2016,05,20,08,33,11.70
2016,05,20,08,34,11.80
2016,05,20,08,35,11.80
2016,05,20,08,36,11.90
2016,05,20,08,37,11.90
2016,05,20,08,38,11.90
2016,05,20,08,39,11.90
2016,05,20,08,40,11.90
2016,05,20,08,41,12.00
2016,05,20,08,42,12.00
2016,05,20,08,43,12.10
2016,05,20,08,44,12.10
2016,05,20,08,45,12.20
2016,05,20,08,46,12.20
2016,05,20,08,47,12.20
2016,05,20,08,48,12.20
2016,05,20,08,49,12.20
2016,05,20,08,50,12.20
2016,05,20,08,51,12.30
2016,05,20,08,52,12.30
2016,05,20,08,53,12.40
2016,05,20,08,54,12.50
2016,05,20,08,55,12.50
2016,05,20,08,56,12.40
2016,05,20,08,57,12.50
2016,05,20,08,58,12.50
2016,05,20,08,59,12.50
2016,05,20,09,00,12.50
2016,05,20,09,01,12.50
2016,05,20,09,02,12.50
2016,05,20,09,03,12.50
2016,05,20,09,04,12.60
2016,05,20,09,05,12.60
2016,05,20,09,06,12.60
2016,05,20,09,07,12.70
2016,05,20,09,08,12.70
2016,05,20,09,09,12.80
2016,05,20,09,10,12.80
2016,05,20,09,11,12.80
2016,05,20,09,12,12.90
2016,05,20,09,13,13.00
2016,05,20,09,14,13.00
2016,05,20,09,15,13.10
2016,05,20,09,16,13.20
2016,05,20,09,17,13.30
2016,05,20,09,18,13.30
2016,05,20,09,19,13.40
2016,05,20,09,20,13.50
2016,05,20,09,21,13.50
2016,05,20,09,22,13.60
2016,05,20,09,23,13.70
2016,05,20,09,24,13.70
2016,05,20,09,25,13.70
2016,05,20,09,26,13.80
2016,05,20,09,27,13.80
2016,05,20,09,28,13.80
2016,05,20,09,29,13.90
2016,05,20,09,30,13.90
2016,05,20,09,31,14.00
2016,05,20,09,32,14.00
2016,05,20,09,33,14.00
2016,05,20,09,34,13.90
2016,05,20,09,35,13.80
2016,05,20,09,36,13.70
2016,05,20,09,37,13.70
2016,05,20,09,38,13.80
2016,05,20,09,39,13.80
2016,05,20,09,40,13.80
2016,05,20,09,41,13.70
2016,05,20,09,42,13.70
2016,05,20,09,43,13.70
2016,05,20,09,44,13.70
2016,05,20,09,45,13.80
2016,05,20,09,46,13.80
2016,05,20,09,47,13.80
2016,05,20,09,48,13.80
2016,05,20,09,49,13.80
2016,05,20,09,50,13.80
2016,05,20,09,51,13.70
2016,05,20,09,52,13.70
2016,05,20,09,53,13.70
2016,05,20,09,54,13.60
2016,05,20,09,55,13.50
2016,05,20,09,56,13.40
2016,05,20,09,57,13.30
2016,05,20,09,58,13.30
2016,05,20,09,59,13.30
2016,05,20,10,00,13.30
2016,05,20,10,01,13.30
2016,05,20,10,02,13.30
2016,05,20,10,03,13.30
2016,05,20,10,04,13.30
2016,05,20,10,05,13.30
2016,05,20,10,06,13.30
2016,05,20,10,07,13.20
2016,05,20,10,08,13.00
2016,05,20,10,09,13.00
2016,05,20,10,10,13.00
2016,05,20,10,11,13.00
2016,05,20,10,12,12.90
2016,05,20,10,13,12.90
2016,05,20,10,14,12.90
2016,05,20,10,15,12.90
2016,05,20,10,16,12.80
2016,05,20,10,17,12.80
2016,05,20,10,18,12.80
2016,05,20,10,19,12.80
2016,05,20,10,20,12.80
2016,05,20,10,21,12.80
2016,05,20,10,22,12.80
2016,05,20,10,23,12.80
2016,05,20,10,24,12.90
2016,05,20,10,25,12.90
2016,05,20,10,26,12.90
2016,05,20,10,27,13.00
2016,05,20,10,28,13.00
2016,05,20,10,29,13.10
2016,05,20,10,30,13.30
2016,05,20,10,31,13.30
2016,05,20,10,32,13.20
2016,05,20,10,33,13.10
2016,05,20,10,34,13.00
2016,05,20,10,35,13.00
2016,05,20,10,36,13.00
2016,05,20,10,37,13.00
2016,05,20,10,38,13.10
2016,05,20,10,39,13.10
2016,05,20,10,40,13.00
2016,05,20,10,41,12.90
2016,05,20,10,42,12.90
2016,05,20,10,43,13.00
2016,05,20,10,44,13.00
2016,05,20,10,45,13.10
2016,05,20,10,46,13.20
2016,05,20,10,47,13.30
2016,05,20,10,48,13.40
2016,05,20,10,49,13.50
2016,05,20,10,50,13.70
2016,05,20,10,51,13.70
2016,05,20,10,52,13.80
2016,05,20,10,53,13.70
2016,05,20,10,54,13.70
2016,05,20,10,55,13.70
2016,05,20,10,56,13.70
2016,05,20,10,57,13.70
2016,05,20,10,58,13.70
2016,05,20,10,59,13.70
2016,05,20,11,00,13.70
2016,05,20,11,01,13.90
2016,05,20,11,02,14.00
2016,05,20,11,03,14.20
2016,05,20,11,04,14.20
2016,05,20,11,05,14.30
2016,05,20,11,06,14.30
2016,05,20,11,07,14.30
2016,05,20,11,08,14.50
2016,05,20,11,09,14.70
2016,05,20,11,10,14.90
2016,05,20,11,11,15.00
2016,05,20,11,12,15.00
2016,05,20,11,13,15.10
2016,05,20,11,14,15.10
2016,05,20,11,15,15.10
2016,05,20,11,16,15.10
2016,05,20,11,17,15.10
2016,05,20,11,18,15.10
2016,05,20,11,19,15.10
2016,05,20,11,20,15.10
2016,05,20,11,21,15.00
2016,05,20,11,22,15.00
2016,05,20,11,23,14.90
2016,05,20,11,24,14.80
2016,05,20,11,25,14.80
2016,05,20,11,26,14.80
2016,05,20,11,27,14.60
2016,05,20,11,28,14.50
2016,05,20,11,29,14.40
2016,05,20,11,30,14.30
2016,05,20,11,31,14.20
2016,05,20,11,32,14.20
2016,05,20,11,33,14.20
2016,05,20,11,34,14.20
2016,05,20,11,35,14.20
2016,05,20,11,36,14.20
2016,05,20,11,37,14.20
2016,05,20,11,38,14.20
2016,05,20,11,39,14.20
2016,05,20,11,40,14.20
2016,05,20,11,41,14.20
2016,05,20,11,42,14.20
2016,05,20,11,43,14.10
2016,05,20,11,44,14.10
2016,05,20,11,45,14.10
2016,05,20,11,46,14.10
2016,05,20,11,47,14.10
2016,05,20,11,48,14.10
2016,05,20,11,49,14.30
2016,05,20,11,50,14.40
2016,05,20,11,51,14.60
2016,05,20,11,52,14.70
2016,05,20,11,53,14.80
2016,05,20,11,54,15.00
2016,05,20,11,55,15.10
2016,05,20,11,56,15.10
2016,05,20,11,57,15.20
2016,05,20,11,58,15.30
2016,05,20,11,59,15.40
2016,05,20,12,00,15.40
2016,05,20,12,01,15.50
2016,05,20,12,02,15.50
2016,05,20,12,03,15.60
2016,05,20,12,04,15.60
2016,05,20,12,05,15.70
2016,05,20,12,06,15.70
2016,05,20,12,07,15.80
2016,05,20,12,08,15.90
2016,05,20,12,09,15.90
2016,05,20,12,10,15.90
2016,05,20,12,11,15.90
2016,05,20,12,12,15.90
2016,05,20,12,13,15.90
2016,05,20,12,14,16.10
2016,05,20,12,15,16.10
2016,05,20,12,16,16.20
2016,05,20,12,17,16.20
2016,05,20,12,18,16.20
2016,05,20,12,19,16.30
2016,05,20,12,20,16.30
2016,05,20,12,21,16.40
2016,05,20,12,22,16.30
2016,05,20,12,23,16.10
2016,05,20,12,24,15.90
2016,05,20,12,25,15.80
2016,05,20,12,26,15.80
2016,05,20,12,27,15.80
2016,05,20,12,28,15.60
2016,05,20,12,29,15.50
2016,05,20,12,30,15.60
2016,05,20,12,31,15.70
2016,05,20,12,32,15.70
2016,05,20,12,33,15.60
2016,05,20,12,34,15.60
2016,05,20,12,35,15.50
2016,05,20,12,36,15.50
2016,05,20,12,37,15.60
2016,05,20,12,38,15.70
2016,05,20,12,39,15.80
2016,05,20,12,40,16.00
2016,05,20,12,41,16.10
2016,05,20,12,42,15.90
2016,05,20,12,43,15.80
2016,05,20,12,44,15.80
2016,05,20,12,45,15.90
2016,05,20,12,46,16.10
2016,05,20,12,47,16.20
2016,05,20,12,48,16.30
2016,05,20,12,49,16.50
2016,05,20,12,50,16.60
2016,05,20,12,51,16.60
2016,05,20,12,52,16.50
2016,05,20,12,53,16.40
2016,05,20,12,54,16.40
2016,05,20,12,55,16.40
2016,05,20,12,56,16.40
2016,05,20,12,57,16.50
2016,05,20,12,58,16.60
2016,05,20,12,59,16.60
2016,05,20,13,00,16.60
2016,05,20,13,01,16.70
2016,05,20,13,02,16.70
2016,05,20,13,03,16.70
2016,05,20,13,04,16.70
2016,05,20,13,05,16.80
2016,05,20,13,06,16.80
2016,05,20,13,07,16.90
2016,05,20,13,08,16.80
2016,05,20,13,09,16.70
2016,05,20,13,10,16.70
2016,05,20,13,11,16.70
2016,05,20,13,12,16.70
2016,05,20,13,13,16.60
2016,05,20,13,14,16.50
2016,05,20,13,15,16.60
2016,05,20,13,16,16.40
2016,05,20,13,17,16.40
2016,05,20,13,18,16.40
2016,05,20,13,19,16.40
2016,05,20,13,20,16.50
2016,05,20,13,21,16.60
2016,05,20,13,22,16.70
2016,05,20,13,23,16.80
2016,05,20,13,24,16.80
2016,05,20,13,25,16.90
2016,05,20,13,26,17.00
2016,05,20,13,27,17.00
2016,05,20,13,28,17.00
2016,05,20,13,29,17.10
2016,05,20,13,30,17.10
2016,05,20,13,31,17.10
2016,05,20,13,32,17.20
2016,05,20,13,33,17.10
2016,05,20,13,34,17.00
2016,05,20,13,35,16.90
2016,05,20,13,36,16.80
2016,05,20,13,37,16.80
2016,05,20,13,38,16.70
2016,05,20,13,39,16.50
2016,05,20,13,40,16.40
2016,05,20,13,41,16.30
2016,05,20,13,42,16.20
2016,05,20,13,43,16.20
2016,05,20,13,44,16.20
2016,05,20,13,45,16.20
2016,05,20,13,46,16.20
2016,05,20,13,47,16.30
2016,05,20,13,48,16.40
2016,05,20,13,49,16.40
2016,05,20,13,50,16.50
2016,05,20,13,51,16.60
2016,05,20,13,52,16.60
2016,05,20,13,53,16.60
2016,05,20,13,54,16.60
2016,05,20,13,55,16.50
2016,05,20,13,56,16.40
2016,05,20,13,57,16.30
2016,05,20,13,58,16.30
2016,05,20,13,59,16.30
2016,05,20,14,00,16.40
2016,05,20,14,01,16.40
2016,05,20,14,02,16.40
2016,05,20,14,03,16.40
2016,05,20,14,04,16.30
2016,05,20,14,05,16.30
2016,05,20,14,06,16.10
2016,05,20,14,07,15.80
2016,05,20,14,08,15.60
2016,05,20,14,09,15.40
2016,05,20,14,10,15.30
2016,05,20,14,11,15.20
2016,05,20,14,12,15.20
2016,05,20,14,13,15.10
2016,05,20,14,14,15.10
2016,05,20,14,15,15.00
2016,05,20,14,16,14.80
2016,05,20,14,17,14.80
2016,05,20,14,18,14.60
2016,05,20,14,19,14.50
2016,05,20,14,20,14.50
2016,05,20,14,21,14.50
2016,05,20,14,22,14.60
2016,05,20,14,23,14.60
2016,05,20,14,24,14.60
2016,05,20,14,25,14.70
2016,05,20,14,26,14.70
2016,05,20,14,27,14.80
2016,05,20,14,28,14.80
2016,05,20,14,29,14.90
2016,05,20,14,30,14.90
2016,05,20,14,31,15.00
2016,05,20,14,32,15.00
2016,05,20,14,33,14.90
2016,05,20,14,34,14.80
2016,05,20,14,35,14.70
2016,05,20,14,36,14.70
2016,05,20,14,37,14.60
2016,05,20,14,38,14.50
2016,05,20,14,39,14.40
2016,05,20,14,40,14.40
2016,05,20,14,41,14.40
2016,05,20,14,42,14.40
2016,05,20,14,43,14.50
2016,05,20,14,44,14.60
2016,05,20,14,45,14.70
2016,05,20,14,46,14.80
2016,05,20,14,47,14.80
2016,05,20,14,48,14.80
2016,05,20,14,49,14.80
2016,05,20,14,50,14.80
2016,05,20,14,51,14.80
2016,05,20,14,52,14.80
2016,05,20,14,53,14.80
2016,05,20,14,54,14.70
2016,05,20,14,55,14.80
2016,05,20,14,56,14.90
2016,05,20,14,57,15.00
2016,05,20,14,58,15.10
2016,05,20,14,59,15.20
2016,05,20,15,00,15.20
2016,05,20,15,01,15.10
2016,05,20,15,02,15.10
2016,05,20,15,03,15.20
2016,05,20,15,04,15.40
2016,05,20,15,05,15.50
2016,05,20,15,06,15.60
2016,05,20,15,07,15.70
2016,05,20,15,08,15.70
2016,05,20,15,09,15.70
2016,05,20,15,10,15.70
2016,05,20,15,11,15.80
2016,05,20,15,12,15.80
2016,05,20,15,13,15.80
2016,05,20,15,14,15.80
2016,05,20,15,15,15.80
2016,05,20,15,16,15.80
2016,05,20,15,17,15.70
2016,05,20,15,18,15.60
2016,05,20,15,19,15.50
2016,05,20,15,20,15.40
2016,05,20,15,21,15.40
2016,05,20,15,22,15.40
2016,05,20,15,23,15.50
2016,05,20,15,24,15.60
2016,05,20,15,25,15.60
2016,05,20,15,26,15.70
2016,05,20,15,27,15.70
2016,05,20,15,28,15.70
2016,05,20,15,29,15.70
2016,05,20,15,30,15.70
2016,05,20,15,31,15.80
2016,05,20,15,32,15.70
2016,05,20,15,33,15.70
2016,05,20,15,34,15.70
2016,05,20,15,35,15.60
2016,05,20,15,36,15.60
2016,05,20,15,37,15.70
2016,05,20,15,38,15.70
2016,05,20,15,39,15.70
2016,05,20,15,40,15.80
2016,05,20,15,41,15.80
2016,05,20,15,42,15.80
2016,05,20,15,43,15.80
2016,05,20,15,44,15.80
2016,05,20,15,45,15.80
2016,05,20,15,46,15.80
2016,05,20,15,47,15.80
2016,05,20,15,48,15.80
2016,05,20,15,49,15.80
2016,05,20,15,50,15.80
2016,05,20,15,51,15.80
2016,05,20,15,52,15.70
2016,05,20,15,53,15.80
2016,05,20,15,54,15.90
2016,05,20,15,55,16.10
2016,05,20,15,56,16.10
2016,05,20,15,57,16.10
2016,05,20,15,58,16.10
2016,05,20,15,59,16.10
2016,05,20,16,00,16.10
2016,05,20,16,01,15.90
2016,05,20,16,02,15.80
2016,05,20,16,03,15.70
2016,05,20,16,04,15.80
2016,05,20,16,05,15.80
2016,05,20,16,06,15.80
2016,05,20,16,07,15.80
2016,05,20,16,08,15.80
2016,05,20,16,09,15.80
2016,05,20,16,10,15.90
2016,05,20,16,11,16.00
2016,05,20,16,12,16.10
2016,05,20,16,13,16.20
2016,05,20,16,14,16.30
2016,05,20,16,15,16.40
2016,05,20,16,16,16.50
2016,05,20,16,17,16.70
2016,05,20,16,18,16.70
2016,05,20,16,19,16.70
2016,05,20,16,20,16.60
2016,05,20,16,21,16.50
2016,05,20,16,22,16.30
2016,05,20,16,23,16.20
2016,05,20,16,24,16.10
2016,05,20,16,25,16.20
2016,05,20,16,26,16.20
2016,05,20,16,27,16.10
2016,05,20,16,28,16.10
2016,05,20,16,29,16.10
2016,05,20,16,30,16.10
2016,05,20,16,31,16.10
2016,05,20,16,32,16.10
2016,05,20,16,33,16.00
2016,05,20,16,34,15.80
2016,05,20,16,35,15.80
2016,05,20,16,36,15.80
2016,05,20,16,37,15.80
2016,05,20,16,38,15.80
2016,05,20,16,39,15.80
2016,05,20,16,40,15.80
2016,05,20,16,41,15.80
2016,05,20,16,42,15.90
2016,05,20,16,43,15.90
2016,05,20,16,44,15.80
2016,05,20,16,45,15.90
2016,05,20,16,46,16.00
2016,05,20,16,47,16.10
2016,05,20,16,48,16.10
2016,05,20,16,49,16.10
2016,05,20,16,50,16.10
2016,05,20,16,51,16.10
2016,05,20,16,52,16.00
2016,05,20,16,53,15.80
2016,05,20,16,54,15.80
2016,05,20,16,55,15.70
2016,05,20,16,56,15.60
2016,05,20,16,57,15.60
2016,05,20,16,58,15.60
2016,05,20,16,59,15.60
2016,05,20,17,00,15.60
2016,05,20,17,01,15.60
2016,05,20,17,02,15.70
2016,05,20,17,03,15.80
2016,05,20,17,04,15.90
2016,05,20,17,05,16.00
2016,05,20,17,06,16.10
2016,05,20,17,07,16.00
2016,05,20,17,08,15.90
2016,05,20,17,09,15.80
2016,05,20,17,10,15.80
2016,05,20,17,11,15.70
2016,05,20,17,12,15.70
2016,05,20,17,13,15.70
2016,05,20,17,14,15.70
2016,05,20,17,15,15.70
2016,05,20,17,16,15.80
2016,05,20,17,17,15.80
2016,05,20,17,18,15.80
2016,05,20,17,19,15.80
2016,05,20,17,20,15.90
2016,05,20,17,21,15.90
2016,05,20,17,22,15.90
2016,05,20,17,23,15.80
2016,05,20,17,24,15.80
2016,05,20,17,25,15.80
2016,05,20,17,26,15.80
2016,05,20,17,27,15.80
2016,05,20,17,28,15.90
2016,05,20,17,29,16.00
2016,05,20,17,30,16.10
2016,05,20,17,31,16.10
2016,05,20,17,32,16.20
2016,05,20,17,33,16.30
2016,05,20,17,34,16.40
2016,05,20,17,35,16.50
2016,05,20,17,36,16.60
2016,05,20,17,37,16.70
2016,05,20,17,38,16.70